Location: Meanaryar
(48.4161°N, 4.7315°W)
Time: 09:33:28
(UTC+00:00)

Cosmos 1092 Rocket - Pass Details

Date: 17 January 2021
Orbit: 954 x 995 km, 83.0° (Epoch: 02 March)

Event Time Altitude Azimuth Distance (km) Brightness Sun altitude
Rises 19:07:13 0° 169° (S) 3,662 7.0 -21.4°
Reaches altitude 10° 19:09:47 10° 165° (SSE) 2,713 6.2 -21.9°
Maximum altitude 19:15:44 51° 91° (E) 1,208 4.0 -22.8°
Enters shadow 19:17:26 40° 47° (NE) 1,394 4.4 -23.1°
